LNKBT ENDI-ENNO

Flight info

Callsign LNKBT
Flight time 0h 31m
Altitude 5500
Route DCT
Aircraft B06/L-SDFGRY/C

Departure

Time 2026-04-16 14:08
Airport Geilo Airport Dagali (ENDI)

Arrival

Time 2026-04-16 14:39
Airport Notodden Airport (ENNO)
Time Latitude Longitude Altitude Speed Heading
2026-04-16 14:02 60.41732 8.51492 2596 ft 0 kts 167°
2026-04-16 14:07 60.41704 8.51541 2629 ft 23 kts 106°
2026-04-16 14:07 60.41776 8.52279 2680 ft 78 kts 79°
2026-04-16 14:07 60.41913 8.53419 2848 ft 89 kts 76°
2026-04-16 14:08 60.42029 8.54602 3102 ft 86 kts 81°
2026-04-16 14:08 60.42180 8.55852 3253 ft 95 kts 78°
2026-04-16 14:08 60.42424 8.57164 3257 ft 110 kts 66°
2026-04-16 14:08 60.42837 8.58533 3078 ft 113 kts 52°
2026-04-16 14:09 60.43315 8.59629 3021 ft 98 kts 50°
2026-04-16 14:09 60.43769 8.60536 3077 ft 87 kts 43°
2026-04-16 14:09 60.43956 8.61626 2938 ft 83 kts 92°
2026-04-16 14:09 60.43924 8.62740 3001 ft 75 kts 95°
2026-04-16 14:10 60.43757 8.63725 3030 ft 78 kts 130°
2026-04-16 14:10 60.43221 8.63978 2982 ft 90 kts 184°
2026-04-16 14:10 60.42611 8.63594 3069 ft 96 kts 193°
2026-04-16 14:10 60.41964 8.63233 3245 ft 94 kts 184°
2026-04-16 14:11 60.41336 8.63237 3439 ft 92 kts 171°
2026-04-16 14:11 60.40674 8.62969 3522 ft 105 kts 191°
2026-04-16 14:11 60.39946 8.62486 3523 ft 113 kts 191°
2026-04-16 14:11 60.39208 8.62285 3487 ft 117 kts 157°
2026-04-16 14:12 60.38761 8.63604 3311 ft 122 kts 100°
2026-04-16 14:12 60.38741 8.65308 3311 ft 120 kts 87°
2026-04-16 14:12 60.38837 8.67009 3290 ft 119 kts 81°
2026-04-16 14:12 60.38959 8.68699 3210 ft 124 kts 84°
2026-04-16 14:13 60.38910 8.70385 3221 ft 118 kts 104°
2026-04-16 14:13 60.38549 8.71848 3243 ft 117 kts 120°
2026-04-16 14:13 60.38006 8.73072 3276 ft 118 kts 135°
2026-04-16 14:13 60.37388 8.74166 3338 ft 117 kts 135°
2026-04-16 14:14 60.36728 8.75235 3275 ft 123 kts 137°
2026-04-16 14:14 60.36041 8.76213 3176 ft 121 kts 144°
2026-04-16 14:14 60.35331 8.77151 3185 ft 120 kts 140°
2026-04-16 14:14 60.34691 8.78267 3030 ft 128 kts 130°
2026-04-16 14:15 60.34089 8.79597 2874 ft 126 kts 128°
2026-04-16 14:15 60.33472 8.80835 2817 ft 124 kts 139°
2026-04-16 14:15 60.32719 8.81502 2925 ft 122 kts 156°
2026-04-16 14:15 60.31887 8.82103 2880 ft 126 kts 154°
2026-04-16 14:16 60.31111 8.82849 2928 ft 122 kts 146°
2026-04-16 14:16 60.30368 8.83725 2945 ft 123 kts 145°
2026-04-16 14:16 60.29644 8.84683 2956 ft 123 kts 141°
2026-04-16 14:16 60.28992 8.85772 2983 ft 123 kts 133°
2026-04-16 14:17 60.28418 8.87075 2887 ft 128 kts 122°
2026-04-16 14:17 60.27983 8.88728 2679 ft 132 kts 110°
2026-04-16 14:17 60.27708 8.90463 2590 ft 131 kts 103°
2026-04-16 14:17 60.27408 8.92248 2308 ft 137 kts 110°
2026-04-16 14:18 60.27112 8.93980 2083 ft 122 kts 106°
2026-04-16 14:18 60.26839 8.95633 1930 ft 125 kts 103°
2026-04-16 14:18 60.26673 8.97296 1932 ft 121 kts 97°
2026-04-16 14:18 60.26342 8.98878 1866 ft 122 kts 120°
2026-04-16 14:19 60.25723 9.00007 1842 ft 123 kts 145°
2026-04-16 14:19 60.24920 9.00476 1951 ft 119 kts 169°
2026-04-16 14:19 60.24081 9.00599 2021 ft 123 kts 172°
2026-04-16 14:19 60.23214 9.00743 1991 ft 125 kts 169°
2026-04-16 14:20 60.22369 9.01042 2010 ft 123 kts 162°
2026-04-16 14:20 60.21526 9.01346 2033 ft 122 kts 169°
2026-04-16 14:20 60.20671 9.01405 2048 ft 123 kts 175°
2026-04-16 14:20 60.19817 9.01371 2092 ft 126 kts 177°
2026-04-16 14:21 60.18934 9.01334 2148 ft 127 kts 175°
2026-04-16 14:21 60.18047 9.01379 2198 ft 127 kts 172°
2026-04-16 14:21 60.17169 9.01551 2214 ft 127 kts 167°
2026-04-16 14:21 60.16298 9.01890 2239 ft 129 kts 162°
2026-04-16 14:22 60.15462 9.02373 2396 ft 114 kts 162°
2026-04-16 14:22 60.14693 9.02740 2654 ft 101 kts 159°
2026-04-16 14:22 60.14272 9.03029 3308 ft 59 kts 152°
2026-04-16 14:22 60.13689 9.03416 2750 ft 122 kts 154°
2026-04-16 14:23 60.12913 9.03970 2555 ft 113 kts 156°
2026-04-16 14:23 60.12148 9.04496 2543 ft 121 kts 156°
2026-04-16 14:23 60.11331 9.05035 2531 ft 125 kts 156°
2026-04-16 14:23 60.10525 9.05690 2538 ft 125 kts 149°
2026-04-16 14:24 60.09788 9.06613 2555 ft 124 kts 140°
2026-04-16 14:24 60.09119 9.07727 2469 ft 127 kts 133°
2026-04-16 14:24 60.08488 9.08973 2426 ft 126 kts 130°
2026-04-16 14:24 60.07920 9.10280 2461 ft 124 kts 127°
2026-04-16 14:25 60.07287 9.11474 2447 ft 124 kts 136°
2026-04-16 14:25 60.06792 9.11941 3419 ft 49 kts 181°
2026-04-16 14:25 60.06457 9.11965 3561 ft 99 kts 161°
2026-04-16 14:25 60.05657 9.12546 3252 ft 127 kts 150°
2026-04-16 14:26 60.04906 9.13427 3153 ft 125 kts 144°
2026-04-16 14:26 60.04161 9.14259 3267 ft 115 kts 147°
2026-04-16 14:26 60.03455 9.14765 3469 ft 111 kts 169°
2026-04-16 14:26 60.02671 9.14715 3572 ft 114 kts 176°
2026-04-16 14:27 60.01865 9.14630 3655 ft 118 kts 174°
2026-04-16 14:27 60.01040 9.14601 3754 ft 119 kts 176°
2026-04-16 14:27 60.00195 9.14534 3743 ft 125 kts 175°
2026-04-16 14:27 59.99340 9.14568 3784 ft 121 kts 172°
2026-04-16 14:28 59.98477 9.14628 3732 ft 125 kts 174°
2026-04-16 14:28 59.97613 9.14585 3702 ft 124 kts 174°
2026-04-16 14:28 59.96779 9.14599 3830 ft 110 kts 176°
2026-04-16 14:28 59.96050 9.14289 3850 ft 113 kts 186°
2026-04-16 14:29 59.95255 9.13973 3656 ft 124 kts 181°
2026-04-16 14:29 59.94392 9.13790 3624 ft 124 kts 178°
2026-04-16 14:29 59.93500 9.13633 3434 ft 135 kts 180°
2026-04-16 14:29 59.92579 9.13260 3319 ft 132 kts 183°
2026-04-16 14:30 59.91678 9.12976 3200 ft 133 kts 182°
2026-04-16 14:30 59.90768 9.12693 3142 ft 129 kts 182°
2026-04-16 14:30 59.89886 9.12432 3136 ft 125 kts 181°
2026-04-16 14:30 59.89015 9.12192 3066 ft 129 kts 185°
2026-04-16 14:31 59.88134 9.11816 3023 ft 128 kts 185°
2026-04-16 14:31 59.87258 9.11405 2937 ft 129 kts 187°
2026-04-16 14:31 59.86409 9.10935 2971 ft 126 kts 189°
2026-04-16 14:31 59.85582 9.10449 3061 ft 119 kts 189°
2026-04-16 14:32 59.84754 9.09890 2941 ft 136 kts 195°
2026-04-16 14:32 59.84018 9.09511 3459 ft 109 kts 185°
2026-04-16 14:32 59.83132 9.09216 3105 ft 142 kts 182°
2026-04-16 14:32 59.82180 9.08929 3109 ft 134 kts 182°
2026-04-16 14:33 59.81272 9.08644 3119 ft 133 kts 182°
2026-04-16 14:33 59.80351 9.08528 3129 ft 131 kts 171°
2026-04-16 14:33 59.79435 9.08645 3115 ft 131 kts 171°
2026-04-16 14:33 59.78541 9.08893 3124 ft 129 kts 162°
2026-04-16 14:34 59.77667 9.09279 3100 ft 130 kts 162°
2026-04-16 14:34 59.76763 9.09685 2976 ft 133 kts 162°
2026-04-16 14:34 59.75864 9.10104 2777 ft 130 kts 161°
2026-04-16 14:34 59.75008 9.10501 2669 ft 125 kts 160°
2026-04-16 14:35 59.74181 9.10993 2576 ft 122 kts 158°
2026-04-16 14:35 59.73377 9.11472 2626 ft 122 kts 159°
2026-04-16 14:35 59.72539 9.11964 2616 ft 131 kts 158°
2026-04-16 14:35 59.71663 9.12485 2561 ft 132 kts 158°
2026-04-16 14:36 59.70777 9.13011 2569 ft 131 kts 158°
2026-04-16 14:36 59.69900 9.13529 2567 ft 131 kts 158°
2026-04-16 14:36 59.64365 9.16779 2608 ft 132 kts 158°
2026-04-16 14:36 59.63478 9.17294 2573 ft 132 kts 159°
2026-04-16 14:37 59.62595 9.17848 2492 ft 134 kts 154°
2026-04-16 14:37 59.61762 9.18589 2299 ft 123 kts 146°
2026-04-16 14:37 59.61008 9.19335 2166 ft 121 kts 155°
2026-04-16 14:37 59.60151 9.19528 1841 ft 130 kts 176°
2026-04-16 14:38 59.59225 9.19389 1463 ft 136 kts 179°
2026-04-16 14:38 59.58366 9.19288 1038 ft 113 kts 172°
2026-04-16 14:38 59.57677 9.19446 680 ft 93 kts 157°
2026-04-16 14:38 59.57125 9.19932 362 ft 81 kts 139°
2026-04-16 14:39 59.56766 9.20619 218 ft 66 kts 122°
2026-04-16 14:39 59.56535 9.21236 136 ft 45 kts 119°
2026-04-16 14:39 59.56394 9.21607 100 ft 22 kts 118°
2026-04-16 14:39 59.56353 9.21738 82 ft 4 kts 59°
2026-04-16 14:40 59.56377 9.21800 77 ft 4 kts 45°
2026-04-16 14:40 59.56417 9.21862 83 ft 7 kts 79°
2026-04-16 14:40 59.56426 9.21915 73 ft 2 kts 77°
2026-04-16 14:40 59.56437 9.21943 60 ft 1 kts 80°
2026-04-16 14:41 59.56439 9.21948 53 ft 0 kts 76°